User: anonymous   Login
Location: C�an Torras
(41.5052°N, 1.9280°E)
Time: 17:41:45
(UTC+00:00)
Language:

IRS-1C Rocket - Orbit

View from above orbital plane
View from above orbital plane
View from above satellite
View from above satellite

Ground track
Ground track

The orbit data is extracted from the following two-line orbital elements,

1 23753U 95072C   21112.68631090 -.00000029  00000-0  73280-5 0  9990
2 23753  98.9547 140.1580 0004323 139.6688 220.4812 14.26598602317627
Epoch (UTC): 22 April 2021 16:28:17
Eccentricity: 0.0004323
inclination: 98.9547°
perigee height: 800 km
apogee height: 806 km
right ascension of ascending node: 140.1580°
argument of perigee: 139.6688°
revolutions per day: 14.26598602
mean anomaly at epoch: 220.4812°
orbit number at epoch: 31762

The dashed part of the orbit path shows where the satellite is in the earth's shadow,  

DLR